Regional Weather Roundup
Issued by NWS

Home | Current Version | Previous Version | Text Only | Print | Product List | Glossary Off
Versions: 1 2 3 4 5 6 7 8 9 10 11 12 13 14 15 16 17 18 19 20 21 22 23 24 25 26 27 28 29 30 31 32 33 34 35 36 37 38 39 40 41 42 43 44 45 46 47 48 49 50

000
ASUS43 KLMK 010010
RWRKY
KENTUCKY REGIONAL WEATHER ROUNDUP
NATIONAL WEATHER SERVICE LOUISVILLE KY
700 PM EST SAT FEB 28 2015

NOTE "FAIR" INDICATES FEW OR NO CLOUDS BELOW 12,000 FEET
WITH NO SIGNIFICANT WEATHER AND/OR OBSTRUCTIONS TO VISIBILITY.

KYZ001>023-026-027-061>063-070>075-010100-
WESTERN AND SOUTH CENTRAL KENTUCKY

CITY           SKY/WX    TMP DP  RH WIND       PRES   REMARKS
PADUCAH        CLOUDY    34  19  54 E7        30.42F WCI  28
HENDERSON      CLOUDY    34  18  51 NE5       30.47F WCI  30
OWENSBORO      CLOUDY    36  19  50 E6        30.49R WCI  31
HOPKINSVILLE   CLOUDY    35  23  60 NE6       30.43F WCI  30
BOWLING GREEN  CLOUDY    37  22  54 NE6       30.46F WCI  32
GLASGOW        CLOUDY    36  22  58 NE7       30.46S WCI  30
$$

KYZ024-025-028>034-038-045-046-053-010100-
NORTH CENTRAL KENTUCKY

CITY           SKY/WX    TMP DP  RH WIND       PRES   REMARKS
LOUISVILLE/SDF CLOUDY    34  17  50 E8        30.50F WCI  27
LOUISVILLE/LOU CLOUDY    34  15  46 E6        30.51S WCI  29
FORT KNOX      CLOUDY    35  16  46 E9        30.45F WCI  27
$$

KYZ035>037-039>044-047>052-055>060-089>105-010100-
NORTHEAST KENTUCKY

CITY           SKY/WX    TMP DP  RH WIND       PRES   REMARKS
LEXINGTON      CLOUDY    33  17  51 E7        30.50F WCI  27
COVINGTON      CLOUDY    28  12  51 E9        30.53F WCI  19
FRANKFORT        N/A     31  16  54 E7        30.50S WCI  24
$$

KYZ054-064>069-076>088-106>120-010100-
SOUTHEAST KENTUCKY

CITY           SKY/WX    TMP DP  RH WIND       PRES   REMARKS
JACKSON        CLOUDY    37  18  46 NE5       30.49F WCI  33
LONDON         PTCLDY    40  18  41 NE3       30.47F
SOMERSET       MOCLDY    37  21  52 E5        30.48S WCI  34
MIDDLESBORO    PTCLDY    37  28  70 CALM      30.49F
MONTICELLO     MOCLDY    39  25  58 CALM      30.48F
$$



USA.gov is the U.S. government's official web portal to all federal, state and local government web resources and services.